Logansport, IN

7:44 PM EDT on July 24, 2017 (GMT -0400)
Logansport Municipal

Weather History for KGGP - January, 2014

Change the Weather History Date:

Tuesday, January 14, 2014

  Actual Average Record
Temperature  
Mean Temperature 29 °F -  
Max Temperature 35 °F 31 °F 42 °F (2016)
Min Temperature 23 °F 17 °F 0 °F (2015)
Degree Days  
Heating Degree Days 36    
Moisture  
Dew Point 25 °F    
Average Humidity 82    
Maximum Humidity 100    
Minimum Humidity 59    
Precipitation  
Precipitation 0.00 in - - ()
Sea Level Pressure  
Sea Level Pressure 29.80 in    
Wind  
Wind Speed 10 mph (SW)    
Max Wind Speed 26 mph    
Max Gust Speed 41 mph    
Visibility 9 miles    
Events Rain , Snow    
Averages and records for this station are not official NWS values.
T = Trace of Precipitation, MM = Missing Value Source: NWS Daily Summary

Daily Weather History Graph

Daily Weather History Graph

Search for Another Location

Airport or City:

Trip Planner

Search our weather history database for the weather conditions in past years. The results will help you decide how hot, cold, wet, or windy it might be!

Date:

Astronomy

Jan. 14, 2014 Rise Set
Actual Time 8:07 AM EST 5:41 PM EST
Civil Twilight 7:37 AM EST 6:11 PM EST
Nautical Twilight 7:03 AM EST 6:45 PM EST
Astronomical Twilight 6:30 AM EST 7:18 PM EST
Moon 4:46 PM EST (1/14) 6:41 AM EST (1/14)
Length of Visible Light 10h 34m
Length of Day
9h 34m
Waxing Gibbous, 98% of the Moon is Illuminated
Jan 14
Waxing Gibbous
Jan 15
Full
Jan 24
Last Quarter
Jan 30
New
Feb 6
First Quarter

Hourly Weather History & Observations

Time (EST) Temp. Windchill Dew Point Humidity Pressure Visibility Wind Dir Wind Speed Gust Speed Precip Events Conditions
12:15 AM 30.2 °F 24.3 °F 28.4 °F 93% 29.79 in 7.0 mi West 5.8 mph - N/A   Scattered Clouds
12:35 AM 30.2 °F 25.4 °F 28.4 °F 93% 29.78 in 7.0 mi West 4.6 mph - N/A   Clear
12:55 AM 28.4 °F 23.3 °F 26.6 °F 93% 29.80 in 7.0 mi West 4.6 mph - N/A   Clear
1:15 AM 30.2 °F 22.6 °F 28.4 °F 93% 29.79 in 10.0 mi West 8.1 mph - N/A   Clear
1:35 AM 30.2 °F 22.6 °F 26.6 °F 86% 29.80 in 10.0 mi West 8.1 mph - N/A   Clear
1:55 AM 30.2 °F 23.4 °F 26.6 °F 86% 29.80 in 10.0 mi WNW 6.9 mph - N/A   Clear
2:15 AM 28.4 °F 23.3 °F 26.6 °F 93% 29.80 in 10.0 mi West 4.6 mph - N/A   Clear
2:35 AM 28.4 °F 23.3 °F 24.8 °F 86% 29.80 in 10.0 mi West 4.6 mph - N/A   Clear
2:55 AM 24.8 °F 20.5 °F 23.0 °F 93% 29.81 in 10.0 mi West 3.5 mph - N/A   Clear
3:15 AM 24.8 °F 16.9 °F 23.0 °F 93% 29.81 in 7.0 mi West 6.9 mph - N/A   Clear
3:35 AM 23.0 °F 17.0 °F 21.2 °F 93% 29.81 in 7.0 mi West 4.6 mph - N/A   Clear
3:55 AM 24.8 °F 19.1 °F 23.0 °F 93% 29.81 in 7.0 mi SW 4.6 mph - N/A   Clear
4:15 AM 26.6 °F 21.2 °F 23.0 °F 86% 29.81 in 7.0 mi WSW 4.6 mph - N/A   Clear
4:35 AM 23.0 °F 17.0 °F 21.2 °F 93% 29.81 in 7.0 mi WSW 4.6 mph - N/A   Clear
4:55 AM 26.6 °F 21.2 °F 24.8 °F 93% 29.80 in 7.0 mi SW 4.6 mph - N/A   Clear
5:15 AM 26.6 °F 22.6 °F 24.8 °F 93% 29.80 in 7.0 mi SW 3.5 mph - N/A   Clear
5:35 AM 26.6 °F 21.2 °F 23.0 °F 86% 29.80 in 7.0 mi SW 4.6 mph - N/A   Clear
5:55 AM 26.6 °F 20.0 °F 24.8 °F 93% 29.80 in 7.0 mi South 5.8 mph - N/A   Clear
6:15 AM 26.6 °F 20.0 °F 23.0 °F 86% 29.80 in 5.0 mi SSW 5.8 mph - N/A   Clear
6:35 AM 26.6 °F 20.0 °F 24.8 °F 93% 29.80 in 7.0 mi SSW 5.8 mph - N/A   Clear
6:55 AM 26.6 °F 19.1 °F 24.8 °F 93% 29.80 in 7.0 mi South 6.9 mph - N/A   Clear
7:15 AM 26.6 °F 20.0 °F 24.8 °F 93% 29.80 in 7.0 mi South 5.8 mph - N/A   Clear
7:35 AM 26.6 °F 18.2 °F 24.8 °F 93% 29.80 in 7.0 mi South 8.1 mph - N/A   Clear
7:55 AM 26.6 °F 19.1 °F 26.6 °F 100% 29.80 in 7.0 mi South 6.9 mph - N/A   Clear
8:15 AM 26.6 °F 19.1 °F 26.6 °F 100% 29.79 in 5.0 mi South 6.9 mph - N/A   Clear
8:35 AM 28.4 °F 21.2 °F 26.6 °F 93% 29.79 in 5.0 mi South 6.9 mph - N/A   Clear
8:55 AM 28.4 °F 19.7 °F 26.6 °F 93% 29.77 in 7.0 mi SSE 9.2 mph - N/A   Clear
9:15 AM 28.4 °F 20.4 °F 26.6 °F 93% 29.77 in 7.0 mi SSE 8.1 mph - N/A   Clear
9:35 AM 30.2 °F 22.6 °F 28.4 °F 93% 29.78 in 7.0 mi South 8.1 mph - N/A   Clear
9:55 AM 30.2 °F 22.6 °F 28.4 °F 93% 29.78 in 7.0 mi South 8.1 mph - N/A   Clear
10:15 AM 32.0 °F 23.6 °F 28.4 °F 87% 29.78 in 10.0 mi South 10.4 mph - N/A   Clear
10:35 AM 32.0 °F 24.2 °F 28.4 °F 87% 29.78 in 10.0 mi SSE 9.2 mph - N/A   Clear
10:55 AM 32.0 °F 22.1 °F 28.4 °F 87% 29.78 in 10.0 mi SSE 13.8 mph - N/A   Clear
11:15 AM 33.8 °F 24.3 °F 26.6 °F 75% 29.76 in 10.0 mi SSE 13.8 mph 17.3 mph N/A   Clear
11:35 AM 33.8 °F 25.3 °F 26.6 °F 75% 29.76 in 10.0 mi SSE 11.5 mph 18.4 mph N/A   Mostly Cloudy
11:55 AM 33.8 °F 23.9 °F 24.8 °F 70% 29.75 in 10.0 mi South 15.0 mph 18.4 mph N/A   Overcast
12:15 PM 35.6 °F 27.1 °F 24.8 °F 65% 29.74 in 10.0 mi South 12.7 mph 18.4 mph N/A   Overcast
12:35 PM 35.6 °F 27.5 °F 26.6 °F 70% 29.73 in 10.0 mi South 11.5 mph - N/A   Overcast
12:55 PM 35.6 °F 27.1 °F 26.6 °F 70% 29.71 in 10.0 mi South 12.7 mph 16.1 mph N/A   Overcast
1:15 PM 35.6 °F 27.5 °F 26.6 °F 70% 29.69 in 10.0 mi South 11.5 mph 17.3 mph N/A   Overcast
1:35 PM 35.6 °F 27.5 °F 26.6 °F 70% 29.70 in 10.0 mi South 11.5 mph 16.1 mph N/A   Overcast
1:55 PM 35.6 °F 27.5 °F 28.4 °F 75% 29.69 in 10.0 mi South 11.5 mph - N/A   Overcast
2:15 PM 35.6 °F 26.6 °F 28.4 °F 75% 29.70 in 10.0 mi SSW 13.8 mph - N/A   Overcast
2:35 PM 35.6 °F 26.6 °F 28.4 °F 75% 29.70 in 10.0 mi SSW 13.8 mph - N/A   Overcast
2:55 PM 35.6 °F 27.1 °F 30.2 °F 81% 29.71 in 10.0 mi SW 12.7 mph 19.6 mph N/A   Light Drizzle
3:15 PM 33.8 °F 22.8 °F 32.0 °F 93% 29.72 in 3.0 mi WSW 18.4 mph 24.2 mph N/A Rain Rain
3:35 PM 33.8 °F 23.5 °F 32.0 °F 93% 29.73 in 4.0 mi WSW 16.1 mph - N/A Rain Light Rain
3:55 PM 33.8 °F 23.2 °F 32.0 °F 93% 29.74 in 7.0 mi WSW 17.3 mph 25.3 mph N/A Rain Light Rain
4:15 PM 33.8 °F 21.6 °F 32.0 °F 93% 29.75 in 10.0 mi WSW 23.0 mph 31.1 mph N/A   Overcast
4:35 PM 32.0 °F 19.8 °F 30.2 °F 93% 29.77 in 10.0 mi West 20.7 mph 28.8 mph N/A   Overcast
4:55 PM 32.0 °F 19.5 °F 30.2 °F 93% 29.78 in 10.0 mi West 21.9 mph 27.6 mph N/A   Overcast
5:15 PM 32.0 °F 19.5 °F 26.6 °F 80% 29.79 in 10.0 mi West 21.9 mph 34.5 mph N/A   Overcast
5:35 PM 32.0 °F 21.6 °F 26.6 °F 80% 29.81 in 10.0 mi West 15.0 mph 24.2 mph N/A   Overcast
5:55 PM 32.0 °F 18.4 °F 24.8 °F 75% 29.82 in 10.0 mi West 26.5 mph 33.4 mph N/A   Overcast
6:15 PM 32.0 °F 21.2 °F 23.0 °F 69% 29.83 in 10.0 mi West 16.1 mph 33.4 mph N/A   Overcast
6:35 PM 32.0 °F 18.4 °F 23.0 °F 69% 29.83 in 10.0 mi West 26.5 mph 35.7 mph N/A   Overcast
6:55 PM 30.2 °F 17.4 °F 21.2 °F 69% 29.85 in 10.0 mi West 20.7 mph 41.4 mph N/A   Overcast
7:15 PM 30.2 °F 17.1 °F 21.2 °F 69% 29.85 in 10.0 mi West 21.9 mph 26.5 mph N/A   Overcast
7:35 PM 30.2 °F 18.5 °F 21.2 °F 69% 29.86 in 10.0 mi West 17.3 mph 38.0 mph N/A   Overcast
7:55 PM 30.2 °F 18.5 °F 21.2 °F 69% 29.86 in 10.0 mi West 17.3 mph 24.2 mph N/A   Overcast
8:15 PM 30.2 °F 17.1 °F 21.2 °F 69% 29.87 in 10.0 mi West 21.9 mph 33.4 mph N/A   Overcast
8:35 PM 30.2 °F 17.4 °F 21.2 °F 69% 29.88 in 10.0 mi West 20.7 mph 35.7 mph N/A   Overcast
8:55 PM 30.2 °F 17.8 °F 19.4 °F 64% 29.88 in 10.0 mi West 19.6 mph 31.1 mph N/A   Overcast
9:35 PM 28.4 °F 15.1 °F 17.6 °F 64% 29.88 in 10.0 mi West 20.7 mph 28.8 mph N/A   Overcast
9:55 PM 28.4 °F 15.4 °F 17.6 °F 64% 29.88 in 10.0 mi West 19.6 mph 32.2 mph N/A   Overcast
10:15 PM 28.4 °F 15.1 °F 15.8 °F 59% 29.89 in 10.0 mi West 20.7 mph 32.2 mph N/A   Overcast
10:35 PM 28.4 °F 13.5 °F 15.8 °F 59% 29.88 in 10.0 mi West 26.5 mph 40.3 mph N/A   Overcast
10:55 PM 28.4 °F 15.1 °F 17.6 °F 64% 29.88 in 10.0 mi West 20.7 mph 34.5 mph N/A   Overcast
11:15 PM 28.4 °F 14.4 °F 17.6 °F 64% 29.88 in 10.0 mi West 23.0 mph 33.4 mph N/A   Overcast
11:35 PM 26.6 °F 13.1 °F 17.6 °F 69% 29.89 in 10.0 mi West 19.6 mph 28.8 mph N/A   Overcast
11:55 PM 26.6 °F 13.8 °F 19.4 °F 74% 29.89 in 10.0 mi West 17.3 mph 21.9 mph N/A Snow Light Snow